Find Starlink 36181

NORAD ID: 68047 Int'l Des: 2026-041 Owner: SPXS Country: US Constellation: starlink operational
LEOCIRCULAR

Live-Position

3D-Globus wird geladen...

Über Starlink 36181

Beschreibung wird geladen...

Nächste Überflüge

Passes for default location (London). Set your location on the main map for personalized predictions.

Höhenverlauf

Loading altitude history...

Zweizeiliger Elementsatz

1 68047U 26041H 26106.91668981 -.01790800 00000-0 -48636-1 0 9996
2 68047 53.1613 232.4392 0001687 56.8415 143.5437 15.40230531 6021
Epoch: 16. Apr. 2026 • Age: 11 hours

Aktueller Status

Höhe 458.0 km
Geschwindigkeit 7.64 km/s
Subsatellitenpunkt -22.41°S, 88.54°E
Startdatum 2. März 2026
Alter 0.1 years
Typ internet

Technische Details

Klassifizierung Payload
Masse 575.00 kg
Trockenmasse 530.00 kg
Gesamtmasse 575.00 kg
Länge 0.30 m
Durchmesser 4.10 m
Spannweite 29.00 m
Form Box + pan
Hersteller SPXS
Bus-Typ Starlink V2MO
Phasenstatus In Orbit
Besitzer/Staat SPXS/US

Most Searched